N31B KFCM-KPWK

Flight info

Callsign N31B
Flight time 1h 10m
Altitude 39000
Route ZMBRO7 ODI JVL KRENA
Aircraft C510/L-SDFGRWY/LB1

Departure

Time 2026-04-24 00:02
Airport Flying Cloud Airport (KFCM)

Arrival

Time 2026-04-24 01:13
Airport Chicago Executive Airport (KPWK)
Time Latitude Longitude Altitude Speed Heading
2026-04-23 23:49 44.83069 -93.46320 908 ft 0 kts 283°
2026-04-23 23:58 44.83055 -93.46338 909 ft 6 kts 199°
2026-04-23 23:58 44.83015 -93.46318 909 ft 9 kts 109°
2026-04-23 23:59 44.82997 -93.46212 911 ft 12 kts 101°
2026-04-23 23:59 44.82981 -93.46106 912 ft 11 kts 101°
2026-04-23 23:59 44.82965 -93.45996 910 ft 15 kts 102°
2026-04-23 23:59 44.82941 -93.45817 909 ft 23 kts 102°
2026-04-24 00:00 44.82910 -93.45589 904 ft 20 kts 102°
2026-04-24 00:00 44.82911 -93.45464 902 ft 12 kts 103°
2026-04-24 00:00 44.82885 -93.45325 902 ft 12 kts 119°
2026-04-24 00:00 44.82855 -93.45192 893 ft 16 kts 102°
2026-04-24 00:01 44.82837 -93.45138 898 ft 6 kts 169°
2026-04-24 00:01 44.82766 -93.45158 900 ft 11 kts 192°
2026-04-24 00:01 44.82698 -93.45174 900 ft 10 kts 190°
2026-04-24 00:01 44.82652 -93.45189 901 ft 4 kts 223°
2026-04-24 00:02 44.82656 -93.45272 900 ft 23 kts 281°
2026-04-24 00:02 44.82727 -93.45780 906 ft 81 kts 281°
2026-04-24 00:02 44.82849 -93.46688 1235 ft 94 kts 276°
2026-04-24 00:02 44.83006 -93.47720 1653 ft 118 kts 277°
2026-04-24 00:03 44.83277 -93.48962 1960 ft 147 kts 279°
2026-04-24 00:03 44.83627 -93.50416 2463 ft 159 kts 280°
2026-04-24 00:03 44.83972 -93.51859 3165 ft 154 kts 282°
2026-04-24 00:03 44.84285 -93.53279 3828 ft 152 kts 281°
2026-04-24 00:04 44.84562 -93.54705 4461 ft 154 kts 281°
2026-04-24 00:04 44.84820 -93.56300 4676 ft 180 kts 280°
2026-04-24 00:04 44.85091 -93.58157 4749 ft 206 kts 280°
2026-04-24 00:04 44.85384 -93.60234 4755 ft 224 kts 278°
2026-04-24 00:05 44.85199 -93.62452 4743 ft 236 kts 250°
2026-04-24 00:05 44.84259 -93.64317 5138 ft 229 kts 224°
2026-04-24 00:05 44.82925 -93.65325 6032 ft 209 kts 200°
2026-04-24 00:05 44.81528 -93.65447 6786 ft 202 kts 178°
2026-04-24 00:06 44.80187 -93.64706 7209 ft 214 kts 150°
2026-04-24 00:06 44.79160 -93.63173 7666 ft 220 kts 123°
2026-04-24 00:06 44.78463 -93.61241 8110 ft 221 kts 120°
2026-04-24 00:06 44.77726 -93.59346 8570 ft 221 kts 121°
2026-04-24 00:07 44.77020 -93.57444 9026 ft 223 kts 120°
2026-04-24 00:07 44.76309 -93.55504 9495 ft 223 kts 121°
2026-04-24 00:07 44.75588 -93.53575 9915 ft 224 kts 121°
2026-04-24 00:07 44.74860 -93.51628 10329 ft 224 kts 122°
2026-04-24 00:08 44.74132 -93.49683 10732 ft 225 kts 122°
2026-04-24 00:08 44.73400 -93.47730 11127 ft 227 kts 122°
2026-04-24 00:08 44.72666 -93.45764 11514 ft 228 kts 123°
2026-04-24 00:08 44.71923 -93.43786 11898 ft 229 kts 123°
2026-04-24 00:09 44.71180 -93.41801 12265 ft 230 kts 123°
2026-04-24 00:09 44.70430 -93.39808 12634 ft 231 kts 124°
2026-04-24 00:09 44.69675 -93.37794 13018 ft 233 kts 124°
2026-04-24 00:09 44.68914 -93.35770 13385 ft 235 kts 124°
2026-04-24 00:10 44.68148 -93.33732 13717 ft 236 kts 124°
2026-04-24 00:10 44.67379 -93.31691 14059 ft 237 kts 125°
2026-04-24 00:10 44.66607 -93.29640 14396 ft 238 kts 125°
2026-04-24 00:10 44.65838 -93.27602 14748 ft 239 kts 125°
2026-04-24 00:11 44.65057 -93.25530 15109 ft 240 kts 125°
2026-04-24 00:11 44.64269 -93.23444 15388 ft 245 kts 126°
2026-04-24 00:11 44.63436 -93.21262 15397 ft 261 kts 125°
2026-04-24 00:11 44.62571 -93.18964 15487 ft 269 kts 124°
2026-04-24 00:12 44.61702 -93.16651 15742 ft 268 kts 125°
2026-04-24 00:12 44.60823 -93.14330 15962 ft 269 kts 125°
2026-04-24 00:12 44.59941 -93.12005 16183 ft 270 kts 125°
2026-04-24 00:12 44.59057 -93.09678 16405 ft 271 kts 125°
2026-04-24 00:13 44.58167 -93.07330 16642 ft 272 kts 125°
2026-04-24 00:13 44.57287 -93.05015 16894 ft 273 kts 125°
2026-04-24 00:13 44.56391 -93.02662 17132 ft 274 kts 126°
2026-04-24 00:13 44.55493 -93.00297 17377 ft 275 kts 126°
2026-04-24 00:14 44.54590 -92.97932 17630 ft 276 kts 126°
2026-04-24 00:14 44.53683 -92.95552 17886 ft 277 kts 126°
2026-04-24 00:14 44.52774 -92.93170 18116 ft 277 kts 126°
2026-04-24 00:14 44.51863 -92.90783 18366 ft 277 kts 126°
2026-04-24 00:15 44.50953 -92.88403 18609 ft 277 kts 126°
2026-04-24 00:15 44.50043 -92.86025 18850 ft 277 kts 126°
2026-04-24 00:15 44.49129 -92.83641 19096 ft 278 kts 126°
2026-04-24 00:15 44.48215 -92.81254 19341 ft 278 kts 126°
2026-04-24 00:16 44.47301 -92.78870 19606 ft 278 kts 126°
2026-04-24 00:16 44.46389 -92.76494 19874 ft 278 kts 126°
2026-04-24 00:16 44.45470 -92.74104 20136 ft 278 kts 126°
2026-04-24 00:16 44.44553 -92.71719 20391 ft 279 kts 126°
2026-04-24 00:17 44.43632 -92.69330 20644 ft 279 kts 126°
2026-04-24 00:17 44.42711 -92.66936 20894 ft 280 kts 126°
2026-04-24 00:17 44.41788 -92.64543 21148 ft 280 kts 126°
2026-04-24 00:17 44.40862 -92.62143 21398 ft 281 kts 126°
2026-04-24 00:18 44.39932 -92.59736 21661 ft 281 kts 127°
2026-04-24 00:18 44.39013 -92.57358 21907 ft 282 kts 126°
2026-04-24 00:18 44.38079 -92.54943 22158 ft 282 kts 127°
2026-04-24 00:18 44.37141 -92.52522 22415 ft 283 kts 127°
2026-04-24 00:19 44.36203 -92.50100 22674 ft 284 kts 127°
2026-04-24 00:19 44.35260 -92.47672 22944 ft 284 kts 127°
2026-04-24 00:19 44.34319 -92.45244 23198 ft 285 kts 127°
2026-04-24 00:19 44.33318 -92.42867 23391 ft 284 kts 130°
2026-04-24 00:20 44.32287 -92.40508 23616 ft 285 kts 129°
2026-04-24 00:20 44.31268 -92.38133 23839 ft 286 kts 129°
2026-04-24 00:20 44.30244 -92.35750 24070 ft 286 kts 129°
2026-04-24 00:20 44.29214 -92.33363 24297 ft 288 kts 129°
2026-04-24 00:21 44.28190 -92.30996 24527 ft 289 kts 129°
2026-04-24 00:21 44.27150 -92.28593 24763 ft 289 kts 129°
2026-04-24 00:21 44.26109 -92.26185 25007 ft 290 kts 130°
2026-04-24 00:21 44.25062 -92.23771 25238 ft 292 kts 130°
2026-04-24 00:22 44.24010 -92.21343 25492 ft 292 kts 129°
2026-04-24 00:22 44.22955 -92.18913 25733 ft 293 kts 129°
2026-04-24 00:22 44.21897 -92.16475 25971 ft 294 kts 129°
2026-04-24 00:22 44.20834 -92.14033 26203 ft 295 kts 129°
2026-04-24 00:23 44.19770 -92.11584 26430 ft 296 kts 129°
2026-04-24 00:23 44.18701 -92.09131 26658 ft 297 kts 129°
2026-04-24 00:23 44.17627 -92.06663 26878 ft 298 kts 129°
2026-04-24 00:23 44.16546 -92.04187 27099 ft 299 kts 129°
2026-04-24 00:24 44.15463 -92.01707 27326 ft 300 kts 129°
2026-04-24 00:24 44.14377 -91.99222 27534 ft 301 kts 129°
2026-04-24 00:24 44.13303 -91.96762 27740 ft 302 kts 129°
2026-04-24 00:24 44.12194 -91.94230 27939 ft 302 kts 129°
2026-04-24 00:25 44.11112 -91.91761 28117 ft 303 kts 129°
2026-04-24 00:25 44.10012 -91.89254 28290 ft 304 kts 129°
2026-04-24 00:25 44.08906 -91.86731 28441 ft 305 kts 129°
2026-04-24 00:25 44.07798 -91.84210 28550 ft 307 kts 129°
2026-04-24 00:26 44.06685 -91.81676 28711 ft 307 kts 129°
2026-04-24 00:26 44.05570 -91.79143 28845 ft 307 kts 129°
2026-04-24 00:26 44.04452 -91.76605 28981 ft 308 kts 129°
2026-04-24 00:26 44.03333 -91.74065 29080 ft 309 kts 129°
2026-04-24 00:27 44.02206 -91.71509 29191 ft 310 kts 129°
2026-04-24 00:27 44.01076 -91.68953 29294 ft 311 kts 129°
2026-04-24 00:27 43.99957 -91.66420 29400 ft 312 kts 129°
2026-04-24 00:27 43.98807 -91.63819 29490 ft 312 kts 129°
2026-04-24 00:28 43.96536 -91.58692 29672 ft 315 kts 129°
2026-04-24 00:28 43.94232 -91.53499 29809 ft 316 kts 129°
2026-04-24 00:29 43.91919 -91.48293 29947 ft 318 kts 129°
2026-04-24 00:29 43.89346 -91.43367 30022 ft 315 kts 135°
2026-04-24 00:30 43.86694 -91.38506 30312 ft 310 kts 134°
2026-04-24 00:30 43.85451 -91.36236 31139 ft 282 kts 135°
2026-04-24 00:30 43.84275 -91.34118 31491 ft 276 kts 136°
2026-04-24 00:31 43.83491 -91.32727 31539 ft 278 kts 136°
2026-04-24 00:31 43.82020 -91.30040 32449 ft 250 kts 136°
2026-04-24 00:31 43.80969 -91.28150 32738 ft 248 kts 137°
2026-04-24 00:31 43.79902 -91.26249 32916 ft 251 kts 136°
2026-04-24 00:32 43.78836 -91.24325 33120 ft 252 kts 136°
2026-04-24 00:32 43.78126 -91.23046 33259 ft 253 kts 136°
2026-04-24 00:32 43.77052 -91.21106 33455 ft 254 kts 136°
2026-04-24 00:32 43.75970 -91.19163 33651 ft 256 kts 136°
2026-04-24 00:33 43.74883 -91.17205 33822 ft 257 kts 136°
2026-04-24 00:33 43.73790 -91.15240 33981 ft 258 kts 136°
2026-04-24 00:33 43.72692 -91.13271 34157 ft 259 kts 136°
2026-04-24 00:33 43.71591 -91.11293 34327 ft 261 kts 136°
2026-04-24 00:34 43.70483 -91.09304 34483 ft 262 kts 136°
2026-04-24 00:34 43.69366 -91.07304 34630 ft 264 kts 136°
2026-04-24 00:34 43.68224 -91.05264 34634 ft 272 kts 136°
2026-04-24 00:34 43.67050 -91.03162 34636 ft 279 kts 136°
2026-04-24 00:35 43.65851 -91.01015 34639 ft 285 kts 135°
2026-04-24 00:35 43.64626 -90.98825 34643 ft 291 kts 135°
2026-04-24 00:35 43.63381 -90.96600 34650 ft 295 kts 135°
2026-04-24 00:35 43.62130 -90.94367 34657 ft 300 kts 135°
2026-04-24 00:36 43.59545 -90.89757 34663 ft 307 kts 135°
2026-04-24 00:36 43.56899 -90.85046 34668 ft 313 kts 135°
2026-04-24 00:37 43.54204 -90.80258 34671 ft 319 kts 135°
2026-04-24 00:37 43.51463 -90.75393 34674 ft 323 kts 135°
2026-04-24 00:38 43.48690 -90.70484 34637 ft 327 kts 134°
2026-04-24 00:38 43.47260 -90.67967 33952 ft 351 kts 134°
2026-04-24 00:38 43.45696 -90.65222 32913 ft 378 kts 133°
2026-04-24 00:39 43.44022 -90.62256 31585 ft 404 kts 133°
2026-04-24 00:39 43.42271 -90.59147 30757 ft 413 kts 133°
2026-04-24 00:39 43.40523 -90.56048 30305 ft 408 kts 133°
2026-04-24 00:39 43.38774 -90.52978 29812 ft 405 kts 133°
2026-04-24 00:40 43.37045 -90.49948 29259 ft 402 kts 133°
2026-04-24 00:40 43.35330 -90.46931 28748 ft 398 kts 133°
2026-04-24 00:40 43.33631 -90.43946 28230 ft 395 kts 133°
2026-04-24 00:40 43.31941 -90.40986 27720 ft 392 kts 133°
2026-04-24 00:41 43.30263 -90.38050 27226 ft 389 kts 133°
2026-04-24 00:41 43.28618 -90.35172 26771 ft 386 kts 133°
2026-04-24 00:41 43.26968 -90.32284 26329 ft 383 kts 133°
2026-04-24 00:41 43.25327 -90.29424 25892 ft 380 kts 133°
2026-04-24 00:42 43.23696 -90.26580 25483 ft 378 kts 133°
2026-04-24 00:42 43.22080 -90.23763 25088 ft 375 kts 133°
2026-04-24 00:42 43.20473 -90.20965 24699 ft 373 kts 133°
2026-04-24 00:42 43.18874 -90.18183 24311 ft 370 kts 133°
2026-04-24 00:43 43.17249 -90.15368 23155 ft 386 kts 133°
2026-04-24 00:43 43.15574 -90.12464 22171 ft 386 kts 132°
2026-04-24 00:43 43.13931 -90.09596 21355 ft 379 kts 132°
2026-04-24 00:43 43.12306 -90.06782 20559 ft 374 kts 133°
2026-04-24 00:44 43.10705 -90.04018 19805 ft 369 kts 133°
2026-04-24 00:44 43.09122 -90.01279 19086 ft 363 kts 132°
2026-04-24 00:44 43.07584 -89.98620 18387 ft 359 kts 132°
2026-04-24 00:44 43.06042 -89.95961 17700 ft 354 kts 133°
2026-04-24 00:45 43.04523 -89.93339 16967 ft 349 kts 133°
2026-04-24 00:45 43.03022 -89.90755 16269 ft 345 kts 133°
2026-04-24 00:45 43.01537 -89.88197 15599 ft 342 kts 132°
2026-04-24 00:45 43.00067 -89.85670 14970 ft 339 kts 132°
2026-04-24 00:46 42.98608 -89.83160 14390 ft 335 kts 132°
2026-04-24 00:46 42.97161 -89.80678 13838 ft 333 kts 133°
2026-04-24 00:46 42.95725 -89.78215 13299 ft 330 kts 133°
2026-04-24 00:46 42.94303 -89.75775 12766 ft 327 kts 133°
2026-04-24 00:47 42.92921 -89.73403 12720 ft 311 kts 133°
2026-04-24 00:47 42.91600 -89.71139 12712 ft 299 kts 133°
2026-04-24 00:47 42.90323 -89.68960 12711 ft 290 kts 133°
2026-04-24 00:47 42.89079 -89.66836 12706 ft 283 kts 133°
2026-04-24 00:48 42.87860 -89.64755 12706 ft 279 kts 133°
2026-04-24 00:48 42.86658 -89.62706 12699 ft 275 kts 133°
2026-04-24 00:48 42.85466 -89.60671 12705 ft 273 kts 134°
2026-04-24 00:48 42.84285 -89.58659 12707 ft 271 kts 134°
2026-04-24 00:49 42.83109 -89.56660 12708 ft 270 kts 134°
2026-04-24 00:49 42.81957 -89.54697 12707 ft 269 kts 134°
2026-04-24 00:49 42.80787 -89.52708 12710 ft 268 kts 134°
2026-04-24 00:49 42.79623 -89.50729 12707 ft 268 kts 134°
2026-04-24 00:50 42.78459 -89.48753 12711 ft 268 kts 134°
2026-04-24 00:50 42.77296 -89.46778 12710 ft 267 kts 134°
2026-04-24 00:50 42.76129 -89.44799 12711 ft 267 kts 133°
2026-04-24 00:50 42.74964 -89.42822 12715 ft 267 kts 133°
2026-04-24 00:51 42.73799 -89.40850 12713 ft 267 kts 133°
2026-04-24 00:51 42.72634 -89.38878 12715 ft 268 kts 133°
2026-04-24 00:51 42.71465 -89.36901 12713 ft 268 kts 133°
2026-04-24 00:51 42.70299 -89.34929 12716 ft 268 kts 133°
2026-04-24 00:52 42.69127 -89.32949 12716 ft 268 kts 133°
2026-04-24 00:52 42.67956 -89.30973 12728 ft 268 kts 133°
2026-04-24 00:52 42.66789 -89.29001 12757 ft 267 kts 133°
2026-04-24 00:52 42.65631 -89.27049 12885 ft 263 kts 133°
2026-04-24 00:53 42.64487 -89.25120 12938 ft 262 kts 133°
2026-04-24 00:53 42.63350 -89.23208 12938 ft 264 kts 133°
2026-04-24 00:53 42.62191 -89.21260 12936 ft 266 kts 133°
2026-04-24 00:53 42.61029 -89.19303 12936 ft 266 kts 133°
2026-04-24 00:54 42.59860 -89.17339 12861 ft 270 kts 133°
2026-04-24 00:54 42.58663 -89.15334 12640 ft 277 kts 133°
2026-04-24 00:54 42.57421 -89.13253 12080 ft 293 kts 133°
2026-04-24 00:54 42.56126 -89.11016 11539 ft 306 kts 128°
2026-04-24 00:55 42.55166 -89.08439 11282 ft 306 kts 115°
2026-04-24 00:55 42.54382 -89.05747 10895 ft 306 kts 116°
2026-04-24 00:55 42.53575 -89.03092 10549 ft 304 kts 116°
2026-04-24 00:55 42.52774 -89.00429 10208 ft 303 kts 116°
2026-04-24 00:56 42.51992 -88.97809 9879 ft 303 kts 116°
2026-04-24 00:56 42.51198 -88.95165 9559 ft 302 kts 116°
2026-04-24 00:56 42.50411 -88.92541 9260 ft 300 kts 116°
2026-04-24 00:56 42.49622 -88.89929 8960 ft 298 kts 117°
2026-04-24 00:57 42.48844 -88.87340 8667 ft 296 kts 117°
2026-04-24 00:57 42.48068 -88.84772 8401 ft 293 kts 117°
2026-04-24 00:57 42.46530 -88.79684 7856 ft 290 kts 117°
2026-04-24 00:58 42.45769 -88.77160 7609 ft 288 kts 117°
2026-04-24 00:58 42.45010 -88.74659 7405 ft 286 kts 118°
2026-04-24 00:58 42.44258 -88.72175 7167 ft 284 kts 118°
2026-04-24 00:58 42.43507 -88.69698 6907 ft 284 kts 118°
2026-04-24 00:59 42.42756 -88.67230 6682 ft 282 kts 118°
2026-04-24 00:59 42.42011 -88.64775 6458 ft 281 kts 119°
2026-04-24 00:59 42.41269 -88.62340 6249 ft 279 kts 119°
2026-04-24 00:59 42.40531 -88.59912 6026 ft 278 kts 119°
2026-04-24 01:00 42.39803 -88.57521 5984 ft 271 kts 119°
2026-04-24 01:00 42.39097 -88.55199 5978 ft 264 kts 119°
2026-04-24 01:00 42.38401 -88.52926 5982 ft 259 kts 119°
2026-04-24 01:00 42.37713 -88.50681 5981 ft 256 kts 119°
2026-04-24 01:01 42.36912 -88.48582 5981 ft 247 kts 129°
2026-04-24 01:01 42.36025 -88.46618 5979 ft 247 kts 127°
2026-04-24 01:01 42.35174 -88.44591 5972 ft 247 kts 127°
2026-04-24 01:01 42.34313 -88.42582 5968 ft 246 kts 127°
2026-04-24 01:02 42.34020 -88.41901 5875 ft 248 kts 127°
2026-04-24 01:02 42.33101 -88.39759 5607 ft 248 kts 127°
2026-04-24 01:02 42.32260 -88.37799 5367 ft 248 kts 127°
2026-04-24 01:02 42.31390 -88.35773 5122 ft 248 kts 127°
2026-04-24 01:03 42.30524 -88.33767 4877 ft 247 kts 127°
2026-04-24 01:03 42.29708 -88.31733 4634 ft 248 kts 121°
2026-04-24 01:03 42.29106 -88.29542 4386 ft 249 kts 116°
2026-04-24 01:03 42.28506 -88.27364 4138 ft 246 kts 119°
2026-04-24 01:04 42.27837 -88.25247 3890 ft 244 kts 120°
2026-04-24 01:04 42.27199 -88.23206 3654 ft 243 kts 119°
2026-04-24 01:04 42.26535 -88.21034 3405 ft 242 kts 119°
2026-04-24 01:04 42.25967 -88.18890 3156 ft 245 kts 110°
2026-04-24 01:05 42.25804 -88.16604 2999 ft 249 kts 97°
2026-04-24 01:05 42.26034 -88.14296 2970 ft 249 kts 82°
2026-04-24 01:05 42.26633 -88.12090 2845 ft 251 kts 73°
2026-04-24 01:05 42.27281 -88.09903 2721 ft 250 kts 76°
2026-04-24 01:06 42.27900 -88.07707 2597 ft 248 kts 76°
2026-04-24 01:06 42.28198 -88.05553 2497 ft 220 kts 95°
2026-04-24 01:06 42.28122 -88.03596 2495 ft 198 kts 107°
2026-04-24 01:06 42.27774 -88.01898 2490 ft 180 kts 118°
2026-04-24 01:07 42.27240 -88.00440 2444 ft 169 kts 129°
2026-04-24 01:07 42.26550 -87.99197 2323 ft 161 kts 138°
2026-04-24 01:07 42.25770 -87.98207 2304 ft 148 kts 147°
2026-04-24 01:07 42.24949 -87.97456 2300 ft 138 kts 156°
2026-04-24 01:08 42.24131 -87.96921 2297 ft 122 kts 162°
2026-04-24 01:08 42.23382 -87.96541 2286 ft 110 kts 165°
2026-04-24 01:08 42.22691 -87.96166 2286 ft 105 kts 165°
2026-04-24 01:08 42.22015 -87.95819 2296 ft 104 kts 165°
2026-04-24 01:09 42.21334 -87.95456 2297 ft 106 kts 164°
2026-04-24 01:09 42.20730 -87.95133 2290 ft 87 kts 166°
2026-04-24 01:09 42.20148 -87.94829 2243 ft 92 kts 164°
2026-04-24 01:09 42.19544 -87.94514 2112 ft 93 kts 165°
2026-04-24 01:10 42.18931 -87.94214 1982 ft 96 kts 167°
2026-04-24 01:10 42.18298 -87.93897 1877 ft 96 kts 164°
2026-04-24 01:10 42.17694 -87.93544 1735 ft 95 kts 164°
2026-04-24 01:10 42.17087 -87.93180 1553 ft 95 kts 160°
2026-04-24 01:11 42.16455 -87.92844 1476 ft 101 kts 165°
2026-04-24 01:11 42.15803 -87.92495 1366 ft 100 kts 163°
2026-04-24 01:11 42.15152 -87.92206 1197 ft 96 kts 164°
2026-04-24 01:11 42.14522 -87.91866 1088 ft 102 kts 161°
2026-04-24 01:12 42.13852 -87.91505 977 ft 104 kts 162°
2026-04-24 01:12 42.13185 -87.91156 849 ft 101 kts 164°
2026-04-24 01:12 42.12553 -87.90828 716 ft 94 kts 163°
2026-04-24 01:12 42.11987 -87.90528 641 ft 81 kts 162°
2026-04-24 01:13 42.11636 -87.90347 636 ft 10 kts 159°
2026-04-24 01:13 42.11581 -87.90317 637 ft 10 kts 159°
2026-04-24 01:13 42.11498 -87.90276 638 ft 16 kts 161°
2026-04-24 01:13 42.11415 -87.90212 638 ft 7 kts 114°
2026-04-24 01:14 42.11385 -87.90139 639 ft 10 kts 118°
2026-04-24 01:14 42.11370 -87.90101 639 ft 0 kts 117°
2026-04-24 01:15 42.11369 -87.90087 639 ft 7 kts 86°
2026-04-24 01:16 42.11382 -87.90058 639 ft 4 kts
2026-04-24 01:16 42.11450 -87.90090 639 ft 13 kts 341°
2026-04-24 01:16 42.11514 -87.90123 638 ft 11 kts 336°
2026-04-24 01:16 42.11554 -87.90123 640 ft 7 kts 50°
2026-04-24 01:17 42.11576 -87.90051 641 ft 8 kts 66°
2026-04-24 01:17 42.11622 -87.90030 641 ft 7 kts 338°
2026-04-24 01:17 42.11653 -87.90049 641 ft 6 kts 312°
2026-04-24 01:17 42.11655 -87.90083 641 ft 3 kts 294°
2026-04-24 01:18 42.11677 -87.90107 641 ft 2 kts 336°
2026-04-24 01:18 42.11692 -87.90103 641 ft 0 kts 69°